BRITE-PL2 (HEWELIUSZ)

Last updated on Thu Nov 21 2024 00:03:26 GMT+0000 (Coordinated Universal Time)

1 40119U 14049B 24325.52214700 .00004064 00000+0 41902-3 0 9992 2 40119 97.8874 64.7003 0014715 205.6401 154.4089 14.90710763555853
UTC large
Height (km)
Speed (km/s)
/
Latitude / Longitude
Inclination (degrees)
Orbital Period (minutes)
Azimuth
Elevation
Range (km)
Doppler Factor

Next 0 passes for location: London (51.5072 / 0.1276)

Sorry there are no passes over London.